Find Saudisat 4

NORAD ID: 40016 Int'l Des: 2014-033 Owner: KACST Country: SA operational
LEOCIRCULARRETROGRADESSO

現在のビュー

3D地球を読み込み中...

Saudisat 4について

説明を読み込み中...

次回通過

Passes for default location (London). Set your location on the main map for personalized predictions.

高度履歴

Loading altitude history...

軌道要素

1 40016U 14033G 26146.27418751 .00000808 00000-0 11302-3 0 9992
2 40016 97.7555 293.1710 0045727 143.2692 217.1669 14.79506980642830
Epoch: May 26, 2026 • Age: 8 hours

現在のステータス

高度 637.4 km
速度 7.55 km/s
衛星直下点 56.50°N, 173.18°E
打ち上げ日 Jun 19, 2014
運用期間 11.9 years
タイプ other

技術仕様

分類 Payload
質量 100.00 kg
乾燥質量 100.00 kg
総質量 100.00 kg
長さ 0.50 m
直径 0.30 m
スパン 0.50 m
形状 Box
製造者 KACST
バスタイプ Saudisat
フェーズステータス In Orbit
所有者/国 KACST/SA

Most Searched